ESSAIM-1

导读

ESSAIM-1是法国“蜂群”(Essaim)电子侦察卫星星座的成员,由法国武器装备部主导,阿斯特里姆公司、泰雷兹公司联合研制,于2004年12月18日搭乘阿里安-5火箭发射升空。卫星重120千克,运行在680千米近地轨道,和另外三颗卫星组成编队飞行,通过时差定位技术对地面电磁信号进行侦察定位,验证小卫星集群电子侦察技术,为法国信号情报收集提供支撑。

Basic Information
目录编号:
28494
目录名称:
ESSAIM-1
国际标识:
2004-049C
轨道中心:
EARTH
卫星名称:
ESSAIM-1
卫星全名:
ESSAIM-1
卫星状态:
在轨 (已飞行7941 天)
发射日期:
2004-12-18 UTC
国别 :
法国 (FR)
星等 :
--
This satellite is enrolled in the Space Conjunction Data Service (SCDS) and the current flight risk assessment level is: No High Risk
Orbit Information
数据来源 国际轨道数据
星历时间: 2026-09-15T05:32:27+0800
1天前
查看轨道信息
半长轴: 6987.161km
偏心率: 0.0001695
轨道倾角: 98.289°
近地点辐角 91.968°
升交点赤经 130.855°
平近点角 268.173°
近地点: 607.839km
远地点: 610.209km
周期: 96.875分钟
每日圈数: 14.864547
Detailed Information
使用方式:
暂无
2D Orbit Map
3D Orbit Map
Orbit Altitude Analysis Chart
Orbit Inclination Analysis Chart
Orbit Comprehensive Analysis Chart
View Comprehensive Chart
Conjunction Data List
Event ID Objects TCA Miss Dist (km) Collision Risk Probability Collision Risk Index (CRI) Action
CDM_260917-125402-492602-849424
ESSAIM-1 (28494)
2026-09-17T
12:54:59+0000
0.630 km
远距离
1.143642E-4 高风险 0.76
CDM_260916-210502-849406-292824
ESSAIM-1 (28494)
2026-09-16T
21:05:42+0000
2.450 km
极远距离
1.830954E-6 低风险 0.4
Miss Distance Evolution Trend with All Objects Subscribe to Flight Safety Assessment
Collision Probability Evolution Trend with All Objects Subscribe to Flight Safety Assessment